When you browse on this site, cookies collect data to enhance your experience and personalize the content and advertising you see.
Visit our Privacy Policy to learn more. By continuing to use the site, you agree to this use of cookies and data.
  • In Portugal
  • List of Countries
  • For 7 days
  • Water Temperature
  • Weather Map
  • Weather Widgets
  • user-avatar
    Login

    Hourly Weather Hobart

    Today, 22 November, Friday

    Time Temperature Precipitation Wind Pressure Humidity
    00:00 +10°C° 0 mm 2 mps 741 mmHg 83%
    01:00 +10°C° 0 mm 2 mps 742 mmHg 84%
    02:00 +9°C° 0 mm 2 mps 743 mmHg 86%
    03:00 +8°C° 0 mm 2 mps 743 mmHg 88%
    04:00 +8°C° 0 mm 2 mps 744 mmHg 90%
    05:00 +11°C° 0 mm 1 mps 745 mmHg 80%
    06:00 +12°C° 0 mm 1 mps 745 mmHg 70%
    07:00 +14°C° 0 mm 1 mps 746 mmHg 60%
    08:00 +15°C° 0 mm 1 mps 746 mmHg 52%
    09:00 +18°C° 0 mm 1 mps 746 mmHg 44%
    10:00 +19°C° 0 mm 2 mps 746 mmHg 35%
    11:00 +20°C° 0 mm 2 mps 746 mmHg 35%
    12:00 +21°C° 0 mm 3 mps 745 mmHg 34%
    13:00 +22°C° 0 mm 3 mps 745 mmHg 34%
    14:00 +21°C° 0 mm 3 mps 745 mmHg 38%
    15:00 +20°C° 0 mm 3 mps 745 mmHg 42%
    16:00 +19°C° 0 mm 3 mps 745 mmHg 46%
    17:00 +17°C° 0 mm 3 mps 745 mmHg 52%
    18:00 +16°C° 0 mm 2 mps 745 mmHg 58%
    19:00 +14°C° 0 mm 2 mps 746 mmHg 64%
    20:00 +13°C° 0 mm 1 mps 746 mmHg 65%
    21:00 +13°C° 0 mm 1 mps 746 mmHg 65%
    22:00 +12°C° 0 mm 1 mps 745 mmHg 66%
    23:00 +12°C° 0 mm 1 mps 745 mmHg 67%

    Tomorrow, 23 November, Saturday

    Time Temperature Precipitation Wind Pressure Humidity
    00:00 +10°C° 0 mm 2 mps 745 mmHg 68%
    01:00 +10°C° 0 mm 2 mps 744 mmHg 68%
    02:00 +10°C° 0 mm 2 mps 744 mmHg 69%
    03:00 +10°C° 0 mm 2 mps 744 mmHg 70%
    04:00 +10°C° 0 mm 2 mps 743 mmHg 71%
    05:00 +12°C° 0 mm 2 mps 743 mmHg 69%
    06:00 +13°C° 0 mm 2 mps 743 mmHg 68%
    07:00 +14°C° 0 mm 2 mps 743 mmHg 66%
    08:00 +14°C° 0.2 mm 2 mps 743 mmHg 71%
    09:00 +13°C° 0.2 mm 2 mps 743 mmHg 77%
    10:00 +12°C° 0.2 mm 3 mps 742 mmHg 83%
    11:00 +13°C° 0.3 mm 4 mps 742 mmHg 70%
    12:00 +14°C° 0.3 mm 5 mps 743 mmHg 58%
    13:00 +15°C° 0.3 mm 6 mps 743 mmHg 46%
    14:00 +14°C° 0 mm 7 mps 743 mmHg 44%
    15:00 +14°C° 0 mm 7 mps 743 mmHg 43%
    16:00 +14°C° 0 mm 7 mps 743 mmHg 42%
    17:00 +13°C° 0 mm 6 mps 744 mmHg 46%
    18:00 +12°C° 0 mm 5 mps 745 mmHg 51%
    19:00 +11°C° 0 mm 4 mps 745 mmHg 55%
    20:00 +8°C° 0 mm 4 mps 746 mmHg 62%
    21:00 +8°C° 0 mm 3 mps 746 mmHg 69%
    22:00 +7°C° 0 mm 3 mps 747 mmHg 76%
    23:00 +7°C° 0 mm 3 mps 747 mmHg 75%

    Day after tomorrow, 24 November, Sunday

    Time Temperature Precipitation Wind Pressure Humidity
    00:00 +7°C° 0 mm 2 mps 747 mmHg 74%
    01:00 +8°C° 0 mm 2 mps 747 mmHg 73%
    02:00 +8°C° 0 mm 3 mps 747 mmHg 73%
    03:00 +8°C° 0 mm 3 mps 747 mmHg 72%
    04:00 +8°C° 0 mm 3 mps 747 mmHg 72%
    05:00 +9°C° 0 mm 3 mps 747 mmHg 68%
    06:00 +10°C° 0 mm 3 mps 747 mmHg 65%
    07:00 +10°C° 0 mm 4 mps 747 mmHg 62%
    08:00 +11°C° 0 mm 4 mps 747 mmHg 58%
    09:00 +13°C° 0 mm 3 mps 747 mmHg 54%
    10:00 +14°C° 0 mm 3 mps 747 mmHg 51%
    11:00 +16°C° 0 mm 3 mps 746 mmHg 47%
    12:00 +18°C° 0 mm 3 mps 746 mmHg 43%
    13:00 +20°C° 0 mm 3 mps 745 mmHg 39%
    14:00 +19°C° 0 mm 3 mps 745 mmHg 42%
    15:00 +19°C° 0 mm 2 mps 745 mmHg 45%
    16:00 +18°C° 0 mm 2 mps 745 mmHg 48%
    17:00 +16°C° 0 mm 2 mps 745 mmHg 55%
    18:00 +15°C° 0 mm 2 mps 745 mmHg 62%
    19:00 +13°C° 0 mm 1 mps 745 mmHg 69%
    20:00 +12°C° 0 mm 1 mps 744 mmHg 73%
    21:00 +11°C° 0 mm 1 mps 744 mmHg 77%
    22:00 +10°C° 0 mm 1 mps 744 mmHg 81%
    23:00 +8°C° 0 mm 2 mps 743 mmHg 82%

    25 November, Monday

    Time Temperature Precipitation Wind Pressure Humidity
    00:00 +8°C° 0 mm 2 mps 742 mmHg 84%
    01:00 +7°C° 0 mm 2 mps 742 mmHg 85%
    02:00 +7°C° 0 mm 3 mps 742 mmHg 83%
    03:00 +7°C° 0 mm 3 mps 741 mmHg 81%
    04:00 +7°C° 0 mm 3 mps 741 mmHg 79%
    05:00 +9°C° 0 mm 3 mps 741 mmHg 70%
    06:00 +11°C° 0 mm 3 mps 740 mmHg 60%
    07:00 +13°C° 0 mm 3 mps 740 mmHg 50%
    08:00 +17°C° 0 mm 3 mps 740 mmHg 43%
    09:00 +19°C° 0 mm 3 mps 740 mmHg 36%
    10:00 +21°C° 0 mm 4 mps 740 mmHg 30%
    11:00 +22°C° 0 mm 4 mps 739 mmHg 30%
    12:00 +23°C° 0 mm 4 mps 738 mmHg 29%
    13:00 +23°C° 0 mm 4 mps 738 mmHg 29%
    14:00 +22°C° 0 mm 3 mps 738 mmHg 35%
    15:00 +20°C° 0 mm 3 mps 738 mmHg 40%
    16:00 +19°C° 0 mm 2 mps 738 mmHg 46%
    17:00 +18°C° 0 mm 2 mps 738 mmHg 51%
    18:00 +17°C° 0 mm 2 mps 738 mmHg 55%
    19:00 +16°C° 0 mm 2 mps 738 mmHg 60%
    20:00 +14°C° 0 mm 1 mps 737 mmHg 67%
    21:00 +13°C° 0 mm 1 mps 736 mmHg 75%
    22:00 +11°C° 0 mm 1 mps 736 mmHg 82%
    23:00 +11°C° 0.1 mm 1 mps 735 mmHg 85%

    26 November, Tuesday

    Time Temperature Precipitation Wind Pressure Humidity
    00:00 +11°C° 0.1 mm 1 mps 735 mmHg 88%
    01:00 +11°C° 0.1 mm 1 mps 734 mmHg 91%
    02:00 +10°C° 0.6 mm 2 mps 734 mmHg 93%
    03:00 +10°C° 0.6 mm 2 mps 734 mmHg 94%
    04:00 +10°C° 0.6 mm 2 mps 734 mmHg 96%
    05:00 +10°C° 0.8 mm 3 mps 735 mmHg 94%
    06:00 +10°C° 0.8 mm 3 mps 735 mmHg 92%
    07:00 +10°C° 0.8 mm 3 mps 735 mmHg 90%
    08:00 +10°C° 0.4 mm 4 mps 735 mmHg 86%
    09:00 +10°C° 0.4 mm 5 mps 736 mmHg 81%
    10:00 +10°C° 0.4 mm 6 mps 736 mmHg 76%
    11:00 +11°C° 0.3 mm 6 mps 736 mmHg 69%
    12:00 +11°C° 0.3 mm 6 mps 737 mmHg 61%
    13:00 +11°C° 0.3 mm 6 mps 737 mmHg 54%
    14:00 +11°C° 0.1 mm 6 mps 738 mmHg 54%
    15:00 +11°C° 0.1 mm 6 mps 739 mmHg 53%
    16:00 +10°C° 0.1 mm 6 mps 740 mmHg 52%
    17:00 +9°C° 0 mm 6 mps 740 mmHg 55%
    18:00 +8°C° 0 mm 5 mps 741 mmHg 59%
    19:00 +8°C° 0 mm 4 mps 742 mmHg 62%
    20:00 +6°C° 0 mm 4 mps 743 mmHg 70%
    21:00 +5°C° 0 mm 3 mps 743 mmHg 77%
    22:00 +4°C° 0 mm 3 mps 744 mmHg 84%
    23:00 +3°C° 0 mm 3 mps 744 mmHg 85%

    27 November, Wednesday

    Time Temperature Precipitation Wind Pressure Humidity
    00:00 +3°C° 0 mm 3 mps 744 mmHg 86%
    01:00 +3°C° 0 mm 3 mps 744 mmHg 88%
    02:00 +4°C° 0 mm 2 mps 744 mmHg 88%
    03:00 +4°C° 0 mm 2 mps 744 mmHg 89%
    04:00 +4°C° 0 mm 2 mps 744 mmHg 89%
    05:00 +5°C° 0 mm 2 mps 744 mmHg 81%
    06:00 +7°C° 0 mm 3 mps 744 mmHg 73%
    07:00 +9°C° 0 mm 3 mps 744 mmHg 65%
    08:00 +10°C° 0 mm 3 mps 744 mmHg 60%
    09:00 +11°C° 0 mm 3 mps 744 mmHg 55%
    10:00 +12°C° 0 mm 3 mps 744 mmHg 50%
    11:00 +13°C° 0 mm 4 mps 744 mmHg 52%
    12:00 +13°C° 0 mm 4 mps 744 mmHg 53%
    13:00 +13°C° 0 mm 5 mps 744 mmHg 55%
    14:00 +13°C° 0 mm 5 mps 744 mmHg 54%
    15:00 +13°C° 0 mm 5 mps 743 mmHg 54%
    16:00 +14°C° 0 mm 5 mps 743 mmHg 53%
    17:00 +13°C° 0 mm 5 mps 743 mmHg 56%
    18:00 +12°C° 0 mm 5 mps 744 mmHg 59%
    19:00 +12°C° 0 mm 4 mps 744 mmHg 62%
    20:00 +11°C° 0 mm 4 mps 744 mmHg 67%
    21:00 +10°C° 0 mm 4 mps 744 mmHg 71%
    22:00 +9°C° 0 mm 3 mps 744 mmHg 75%
    23:00 +9°C° 0 mm 3 mps 744 mmHg 78%
    Show more